GW6616 Weather Reports


time (UTC)temp
C
wind
direction
speed
KPH
gust
KPH
rain 1hr
cm
rain 24hr
cm
rain mn
cm
humidity
%
barometer
mb
20260503230509 16 270 1.6 16.1 0.00 0.00 0.00 57 1009.2
20260503230030 16 292 1.6 16.1 0.00 0.00 0.00 58 1009.2
20260503225506 16 245 3.2 14.5 0.00 0.00 0.00 53 1009.2
20260503225009 16 118 8.0 14.5 0.00 0.00 0.00 54 1009.1
20260503224526 15 246 4.8 12.9 0.00 0.00 0.00 60 1008.8
20260503224005 15 105 3.2 9.7 0.00 0.00 0.00 57 1009.2
20260503223503 15 5 1.6 12.9 0.00 0.00 0.00 55 1009.5
20260503223005 15 198 1.6 12.9 0.00 0.00 0.00 57 1009.7
20260503222504 15 143 3.2 9.7 0.00 0.00 0.00 55 1009.6
20260503222004 15 186 3.2 9.7 0.00 0.00 0.00 54 1009.3
20260503221508 15 257 3.2 9.7 0.00 0.00 0.00 57 1009.2
20260503221008 15 24 3.2 12.9 0.00 0.00 0.00 57 1009.2
20260503220504 15 132 1.6 14.5 0.00 0.00 0.00 58 1009.1
20260503220018 15 169 3.2 14.5 0.00 0.00 0.00 61 1009.2
20260503215507 15 300 3.2 16.1 0.00 0.00 0.00 56 1009.5
20260503215010 15 229 3.2 16.1 0.00 0.00 0.00 58 1009.7
20260503214518 15 315 3.2 14.5 0.00 0.00 0.00 54 1009.8
20260503214007 15 317 3.2 14.5 0.00 0.00 0.00 53 1009.5
20260503213507 15 142 1.6 12.9 0.00 0.00 0.00 59 1009.8
20260503213004 15 94 1.6 11.3 0.00 0.00 0.00 59 1009.7
20260503212508 15 150 1.6 17.7 0.00 0.00 0.00 57 1009.7
20260503212005 15 148 3.2 20.9 0.00 0.00 0.00 55 1009.8
20260503211506 15 144 4.8 20.9 0.00 0.00 0.00 54 1009.7
20260503211004 16 123 3.2 12.9 0.00 0.00 0.00 56 1010.0
20260503210504 15 196 3.2 11.3 0.00 0.00 0.00 55 1010.1
20260503210011 15 96 3.2 8.0 0.00 0.00 0.00 55 1010.3
20260503205506 15 126 3.2 19.3 0.00 0.00 0.00 56 1010.3
20260503205004 15 156 8.0 25.7 0.00 0.00 0.00 54 1010.4
20260503204514 15 46 4.8 25.7 0.00 0.00 0.00 52 1010.7
20260503204007 15 119 4.8 24.1 0.00 0.00 0.00 52 1010.9
20260503203510 16 255 6.4 20.9 0.00 0.00 0.00 54 1011.0
20260503203029 16 184 6.4 24.1 0.00 0.00 0.00 54 1011.0
20260503202508 16 167 4.8 24.1 0.00 0.00 0.00 54 1011.0
20260503202005 16 238 3.2 9.7 0.00 0.00 0.00 53 1011.1
20260503201505 16 64 3.2 24.1 0.00 0.00 0.00 54 1011.2
20260503201004 16 181 3.2 24.1 0.00 0.00 0.00 55 1011.4
20260503200505 16 171 4.8 19.3 0.00 0.00 0.00 51 1011.6
20260503200008 16 19 4.8 19.3 0.00 0.00 0.00 51 1012.1
20260503195505 16 259 3.2 19.3 0.00 0.00 0.00 53 1012.1
20260503195006 16 248 3.2 17.7 0.00 0.00 0.00 56 1012.3
20260503194515 16 281 6.4 22.5 0.00 0.00 0.00 52 1012.6
20260503194008 16 234 3.2 22.5 0.00 0.00 0.00 53 1012.8
20260503193512 15 254 1.6 14.5 0.00 0.00 0.00 53 1013.3
20260503193018 15 217 1.6 16.1 0.00 0.00 0.00 55 1013.4
20260503192506 15 215 4.8 17.7 0.00 0.00 0.00 50 1013.5
20260503192007 15 34 3.2 27.4 0.00 0.00 0.00 55 1013.7
20260503191524 16 109 6.4 27.4 0.00 0.00 0.00 49 1013.7
20260503191004 16 313 4.8 12.9 0.00 0.00 0.00 50 1013.6
20260503190504 15 227 4.8 17.7 0.00 0.00 0.00 51 1013.5
20260503190006 15 217 4.8 20.9 0.00 0.00 0.00 51 1013.6
20260503185505 15 336 6.4 20.9 0.00 0.00 0.00 48 1013.5
20260503185007 15 244 3.2 22.5 0.00 0.00 0.00 49 1013.6
20260503184517 15 162 6.4 22.5 0.00 0.00 0.00 51 1013.7
20260503184007 16 309 8.0 16.1 0.00 0.00 0.00 49 1013.7
20260503183505 16 181 3.2 25.7 0.00 0.00 0.00 46 1013.5
20260503183021 16 140 6.4 25.7 0.00 0.00 0.00 52 1013.5
20260503182507 16 219 4.8 22.5 0.00 0.00 0.00 54 1013.6
20260503182008 16 9 8.0 20.9 0.00 0.00 0.00 45 1013.7
20260503181521 16 289 9.7 20.9 0.00 0.00 0.00 48 1014.0
20260503181007 16 320 3.2 20.9 0.00 0.00 0.00 49 1013.9
20260503180509 16 270 4.8 16.1 0.00 0.00 0.00 51 1014.3
20260503180006 16 116 4.8 16.1 0.00 0.00 0.00 49 1014.1
20260503175504 16 105 4.8 16.1 0.00 0.00 0.00 53 1014.2
20260503175004 16 174 6.4 16.1 0.00 0.00 0.00 49 1014.4
20260503174508 16 45 6.4 20.9 0.00 0.00 0.00 50 1014.6
20260503174004 16 50 4.8 20.9 0.00 0.00 0.00 52 1014.7
20260503173505 16 240 4.8 12.9 0.00 0.00 0.00 54 1015.0
20260503173014 15 227 4.8 17.7 0.00 0.00 0.00 54 1015.2
20260503172506 16 168 6.4 20.9 0.00 0.00 0.00 51 1015.1
20260503172006 16 265 6.4 22.5 0.00 0.00 0.00 56 1015.2
20260503171518 16 315 4.8 22.5 0.00 0.00 0.00 55 1015.4
20260503171009 16 293 6.4 19.3 0.00 0.00 0.00 52 1015.5
20260503170509 16 252 6.4 17.7 0.00 0.00 0.00 52 1015.6
20260503151008 13 261 8.0 22.5 0.00 0.00 0.00 54 1016.9
20260503150506 13 65 6.4 16.1 0.00 0.00 0.00 59 1017.1
20260503131007 8 217 4.8 12.9 0.00 0.00 0.00 70 1017.4
20260503130506 8 302 1.6 9.7 0.00 0.00 0.00 73 1017.3
20260503110510 3 29 0.0 0.0 0.00 0.00 0.00 78 1017.0
20260503090505 3 338 0.0 0.0 0.00 0.00 0.00 79 1017.0
20260503081503 3 338 0.0 0.0 0.00 0.00 0.00 83 1017.0
20260503081003 3 338 0.0 0.0 0.00 0.00 0.00 84 1017.0
20260503080504 3 338 0.0 0.0 0.00 0.00 0.00 86 1017.0
20260503072506 3 338 0.0 0.0 0.00 0.00 0.00 88 1017.0
20260503072008 3 338 0.0 0.0 0.00 0.00 0.00 88 1017.0
20260503071519 3 338 0.0 0.0 0.00 0.00 0.00 89 1017.1
20260503071008 3 338 0.0 0.0 0.00 0.00 0.00 88 1017.1
20260503070506 3 338 0.0 0.0 0.00 0.00 0.00 88 1017.1
20260503055007 3 338 0.0 0.0 0.00 0.00 0.00 81 1017.4
20260503054516 3 338 0.0 0.0 0.00 0.00 0.00 81 1017.4
20260503054005 3 338 0.0 0.0 0.00 0.00 0.00 81 1017.4
20260503053504 3 338 0.0 0.0 0.00 0.00 0.00 82 1017.5
20260503053006 3 338 0.0 0.0 0.00 0.00 0.00 85 1017.5
20260503052504 3 338 0.0 0.0 0.00 0.00 0.00 84 1017.6
20260503052007 3 338 0.0 0.0 0.00 0.00 0.00 84 1017.6
20260503051512 3 338 0.0 0.0 0.00 0.00 0.00 84 1017.6
20260503051006 3 338 0.0 0.0 0.00 0.00 0.00 85 1017.5
20260503050511 3 338 0.0 0.0 0.00 0.00 0.00 86 1017.5
20260503050016 3 338 0.0 0.0 0.00 0.00 0.00 85 1017.5
20260503045508 3 338 0.0 0.0 0.00 0.00 0.00 85 1017.5
20260503045011 4 338 0.0 0.0 0.00 0.00 0.00 85 1017.6
20260503044541 4 338 0.0 0.0 0.00 0.00 0.00 85 1017.6
20260503044011 4 338 0.0 0.0 0.00 0.00 0.00 85 1017.6
20260503043503 4 338 0.0 0.0 0.00 0.00 0.00 85 1017.6
20260503043005 4 338 0.0 0.0 0.00 0.00 0.00 85 1017.7
20260503042504 4 338 0.0 0.0 0.00 0.00 0.00 84 1017.6
20260503042007 4 338 0.0 0.0 0.00 0.00 0.00 84 1017.6
20260503041510 4 338 0.0 0.0 0.00 0.00 0.00 83 1017.6
20260503041005 4 338 0.0 0.0 0.00 0.00 0.00 82 1017.7
20260503040506 4 338 0.0 0.0 0.00 0.00 0.00 79 1017.7
20260503040013 4 338 0.0 0.0 0.00 0.00 0.00 78 1017.8
20260503035508 5 338 0.0 0.0 0.00 0.00 0.00 80 1017.8
20260503035007 5 338 0.0 0.0 0.00 0.00 0.00 78 1017.7
20260503034520 5 338 0.0 0.0 0.00 0.00 0.00 78 1017.7
20260503034008 5 338 0.0 0.0 0.00 0.00 0.00 77 1017.7
20260503033512 5 338 0.0 0.0 0.00 0.00 0.00 75 1017.8
20260503033024 5 338 0.0 0.0 0.00 0.00 0.00 77 1017.8
20260503032507 5 338 0.0 0.0 0.00 0.00 0.00 79 1017.7
20260503032005 5 338 0.0 0.0 0.00 0.00 0.00 76 1017.7
20260503031508 5 338 0.0 0.0 0.00 0.00 0.00 75 1017.7
20260503031006 5 338 0.0 0.0 0.00 0.00 0.00 76 1017.7
20260503030505 5 338 0.0 0.0 0.00 0.00 0.00 75 1017.7
20260503030013 5 338 0.0 0.0 0.00 0.00 0.00 75 1017.7
20260503025505 5 338 0.0 0.0 0.00 0.00 0.00 73 1017.7
20260503025006 5 338 0.0 0.0 0.00 0.00 0.00 72 1017.7
20260503024518 5 338 0.0 0.0 0.00 0.00 0.00 72 1017.7
20260503024011 5 338 0.0 0.0 0.00 0.00 0.00 70 1017.7
20260503023506 5 338 0.0 0.0 0.00 0.00 0.00 68 1017.7
20260503023022 6 338 0.0 0.0 0.00 0.00 0.00 72 1017.7
20260503022510 6 338 0.0 0.0 0.00 0.00 0.00 70 1017.7
20260503022010 6 338 0.0 0.0 0.00 0.00 0.00 70 1017.6
20260503021524 6 338 0.0 0.0 0.00 0.00 0.00 65 1017.7
20260503021004 6 338 0.0 0.0 0.00 0.00 0.00 64 1017.7
20260503020506 6 338 0.0 0.0 0.00 0.00 0.00 66 1017.6
20260503020008 6 338 0.0 0.0 0.00 0.00 0.00 66 1017.6
20260503015507 6 338 0.0 0.0 0.00 0.00 0.00 64 1017.5
20260503015006 6 338 0.0 0.0 0.00 0.00 0.00 62 1017.4
20260503014514 6 338 0.0 0.0 0.00 0.00 0.00 66 1017.4
20260503014007 6 338 0.0 0.0 0.00 0.00 0.00 67 1017.4
20260503013508 6 338 0.0 0.0 0.00 0.00 0.00 61 1017.4
20260503013020 7 338 0.0 0.0 0.00 0.00 0.00 59 1017.3
20260503012508 7 338 0.0 0.0 0.00 0.00 0.00 58 1017.3
20260503012009 7 338 0.0 0.0 0.00 0.00 0.00 57 1017.2
20260503011525 7 338 0.0 0.0 0.00 0.00 0.00 60 1017.2
20260503011009 7 338 0.0 0.0 0.00 0.00 0.00 60 1017.2
20260503010509 7 338 0.0 0.0 0.00 0.00 0.00 57 1017.2
20260503010008 7 338 0.0 0.0 0.00 0.00 0.00 58 1017.1
20260503005505 8 338 0.0 0.0 0.00 0.00 0.00 53 1017.1
20260503005005 8 338 0.0 0.0 0.00 0.00 0.00 52 1017.1
20260503004537 8 338 0.0 0.0 0.00 0.00 0.00 56 1017.1
20260503004012 8 338 0.0 0.0 0.00 0.00 0.00 52 1017.1
20260503003506 8 338 0.0 0.0 0.00 0.00 0.00 55 1017.1
20260503003016 9 338 0.0 0.0 0.00 0.00 0.00 57 1017.2
20260503002509 9 338 0.0 0.0 0.00 0.00 0.00 55 1017.1
20260503002009 10 338 0.0 0.0 0.00 0.00 0.00 52 1017.1
20260503001522 10 338 0.0 3.2 0.00 0.00 0.00 48 1017.0
20260503001009 10 338 0.0 3.2 0.00 0.00 0.00 47 1017.0
20260503000512 10 338 1.6 3.2 0.00 0.00 0.00 46 1017.1
20260503000041 11 338 0.0 4.8 0.00 0.00 0.00 46 1017.1
20260502235509 11 338 1.6 4.8 0.00 0.00 0.00 45 1017.1
20260502235009 11 253 0.0 4.8 0.00 0.00 0.00 46 1017.1
20260502234513 11 264 1.6 14.5 0.00 0.00 0.00 40 1017.1
20260502234006 11 5 6.4 17.7 0.00 0.00 0.00 39 1017.2
20260502233504 11 320 11.3 17.7 0.00 0.00 0.00 43 1017.2
20260502233015 11 319 4.8 12.9 0.00 0.00 0.00 42 1017.2
20260502232507 11 296 4.8 14.5 0.00 0.00 0.00 41 1017.1
20260502232006 11 344 6.4 14.5 0.00 0.00 0.00 42 1017.1
20260502231520 11 329 9.7 14.5 0.00 0.00 0.00 42 1017.2
20260502231009 11 13 6.4 17.7 0.00 0.00 0.00 38 1017.1